Flag for U.S.A. Weather past 2 weeks in New Bedford, Massachusetts, U.S.A.

Now
78 °F

Scattered clouds.


Feels Like: 79 °F
Forecast: 58 / 78 °F
Wind: 8 mph from West

Location: New Bedford Regional Airport

Current Time: Jul 30, 2014 at 3:58:24 PM

Latest Report: Jul 30, 2014 at 2:53 PM


Visibility: 10 mi

Pressure: 29.98 "Hg

Humidity: 43%

Dew point: 54 °F

Location of New BedfordLocation

Historic Weather in New Bedford — Graph

°F

New Bedford temperature yesterday

Maximum temperature yesterday: 78 °F (at 12:53 PM)
Minimum temperature yesterday: 62 °F (at 10:53 PM)
Average temperature yesterday: 70 °F

Past Weeks' High & Low Weather Summary

 TemperatureHumidityPressure
High85 °F (Jul 22, 12:53 PM)100% (Jul 17, 12:53 AM)30.27 "Hg (Jul 17, 12:53 AM)
Low56 °F (Jul 30, 3:53 AM)39% (Jul 25, 1:53 PM)29.49 "Hg (Jul 28, 4:53 PM)
Average70 °F79%29.94 "Hg
* Reported Jul 15 1:53 PM — Jul 30 1:53 PM, New Bedford, Weather by CustomWeather, © 2014

Note: Actual official high and low records may vary slightly from our data, if they occured in-between our weather recording intervals... More about our weather records

Advertising

New Bedford weather history for previous 24 hours

 ConditionsComfort  
Time TempWeatherWind HumidityBarometerVisibility
1:53 PM
Jul 30
77 °FScattered clouds.5 mph39%29.98 "Hg10 mi
12:53 PM77 °FPassing clouds.8 mph40%29.98 "Hg10 mi
11:53 AM77 °FPassing clouds.9 mph44%30.00 "Hg10 mi
10:53 AM75 °FPassing clouds.5 mph54%30.00 "Hg10 mi
9:53 AM73 °FSunny.5 mph55%30.00 "Hg10 mi
8:53 AM71 °FSunny.No wind57%29.99 "Hg10 mi
7:53 AM65 °FSunny.No wind85%30.00 "Hg10 mi
6:53 AM57 °FSunny.No wind96%29.98 "Hg10 mi
5:53 AM56 °FClear.No wind97%29.97 "Hg10 mi
5:03 AM56 °FFog.No wind97%29.96 "Hg3 mi
5:01 AM56 °FFog.No wind97%29.96 "Hg2 mi
3:53 AM56 °FClear.No wind97%29.94 "Hg8 mi
2:53 AM59 °FClear.No wind96%29.94 "Hg10 mi
1:53 AM61 °FPassing clouds.No wind93%29.95 "Hg10 mi
12:53 AM61 °FPassing clouds.No wind93%29.96 "Hg10 mi
11:53 PM
Jul 29
62 °FPassing clouds.3 mph90%29.95 "Hg10 mi
10:53 PM62 °FClear.No wind90%29.93 "Hg10 mi
9:53 PM63 °FClear.No wind90%29.93 "Hg10 mi
8:53 PM66 °FSunny.3 mph78%29.91 "Hg10 mi
7:53 PM69 °FSunny.5 mph70%29.90 "Hg10 mi
6:53 PM73 °FSunny.8 mph59%29.88 "Hg10 mi
5:53 PM74 °FSunny.12 mph62%29.86 "Hg10 mi
4:53 PM76 °FSunny.15 mph56%29.85 "Hg10 mi
3:53 PM76 °FPassing clouds.14 mph60%29.83 "Hg10 mi
Weather by CustomWeather, © 2014

See weather overviewHow to use our weather pages